Terug naar catalogus

METEOR 1-17 DEB

ActiefPO
NORAD 57541·DEBRIS·🇷🇺 Russia

Gelanceerd Apr 24, 1974 vanaf Plesetsk Cosmodrome

Loading…

Volgende Passages (komende 24 uur)

TLE

VersSource: Space-Track

Epoch: Sep 13, 2026, 18:55 UTC

1 57541U 74025G   26256.78830445  .00002731  00000-0  11504-2 0  9996
2 57541  81.2084 193.8642 0018810  34.8250 325.4155 14.25425046166898

Volg METEOR 1-17 DEB in realtime met AllMySat

Download on the App Store